Zurück zum Katalog

STARLINK-32856

AktivKommunikationVLEO
NORAD 62819·PAYLOAD·🇺🇸 United States

Gestartet Jan 24, 2025 von Vandenberg Space Force Base

Loading…

Nächste Überflüge (nächste 24 Stunden)

TLE

AktuellSource: CelesTrak SupGP

Epoche: Sep 14, 2026, 22:30 UTC

1 62819C 25018P   26257.93798611 -.00051849  00000+0 -15319-2 0  2574
2 62819  53.1560 147.6151 0001343  84.3144 314.0960 15.34416652    19

Verfolge STARLINK-32856 in Echtzeit mit AllMySat

Download on the App Store